SCP
0 0 0 0 0 0 0 0 0 0 0 0 0 0 0 0 0 0 0 0 0 0 0 0 -0 -0 0 0 0 0 0 0 0 0 0 0 0 0
0 0 0 0 0 0 0 0 0 0 0 -0 0 0 0 0 0 0 0 0 0 0 -0 0 -0 -0 0 0 0 0 0 0 0 0 0 0 0 0
0 0 0 0 0 0 0 0 0 0 0 0 0 0 0 0 0 0 0 0 0 0 0 -0 0 0 0 0 0 0 0 0 0 0 0 0 0 0
0 0 0 0 0 0 0 0 0 0 0 0 0 0 0 0 0 0 0 0 0 0 0 0 0 0 0 0 0 0 0 0 0 0 0 0 0 0
0 0 0 0 0 0 0 0 0 0 0 0 0 0 0 0 0 0 0 0 0 0 0 0 0 0 0 0 0 0 0 0 0 0 0 0 0 0
0 0 0 0 0 0 0 0 0 0 0 0 0 0 0 0 0 0 0 0 0 0 0 0 0 0 0 0 0 0 0 0 0 0 0 0 0 0
0 0 0 0 0 0 0 0 0 0 0 0 0 0 0 0 0 0 0 0 0 0 0 0 0 0 0 0 0 0 0 0 0 0 0 0 0 0
0 0 0 0 0 -0 -0 0 0 0 0 0 0 0 0 0 0 0 0 0 0 0 0 0 0 0 0 0 0 0 0 0 0 0 0 0 0 0
0 0 0 -0 0 0 -0 0 0 0 0 0 0 0 0 0 0 0 0 0 0 0 0 0 0 0 0 0 0 0 0 0 0 0 0 0 0 0
0 0 0 -0 0 0 0 0 0 0 0 0 0 0 0 0 0 0 0 0 0 0 0 0 0 0 0 0 0 0 0 0 0 0 0 0 0 0
0 0 0 0 0 0 0 0 0 0 0 0 0 0 -0 0 0 0 0 0 0 0 0 0 0 0 0 0 0 0 0 0 0 0 0 0 0 0
0 0 -0 0 0 0 0 0 0 -0 0 0 -0 -0 -0 -0 0 0 0 0 0 0 -0 0 0 0 0 0 0 0 0 0 -0 0 0 0 0 0
-0 -0 0 0 0 0 0 0 0 0 0 -0 -0 0 0 0 0 0 0 0 0 0 0 0 0 0 0 0 0 0 0 0 0 0 0 0 0 0
0 0 0 0 0 0 0 0 0 0 0 -0 0 0 0 0 0 0 0 0 0 0 0 0 0 0 0 0 0 0 0 0 0 0 0 0 0 0
0 0 0 0 0 0 0 0 0 0 0 0 0 0 0 0 0 0 0 0 0 0 0 0 0 0 0 0 0 0 0 0 0 0 0 0 0 0
0 0 0 0 0 0 0 0 0 0 0 0 0 0 0 0 0 0 0 0 0 0 -0 0 0 0 0 0 0 0 0 0 0 0 0 0 0 0
0 0 0 0 0 0 0 0 0 0 -0 -0 0 0 0 0 0 0 0 0 0 0 0 0 0 -0 0 0 0 0 0 0 0 0 0 0 0 0
0 0 0 0 0 0 0 0 0 0 0 0 -0 0 0 0 0 0 0 0 0 0 0 -0 0 0 0 0 0 0 0 0 0 0 0 0 0 0
0 0 0 0 0 0 0 0 0 0 0 0 0 0 0 0 0 0 0 0 0 0 0 -0 0 0 0 0 0 0 0 0 0 0 0 0 0 0
0 0 0 0 0 0 0 0 0 0 0 0 0 0 0 0 0 0 0 0 0 -0 -0 0 0 0 0 0 0 0 0 0 0 0 0 0 0 0
0 0 0 0 0 0 0 0 0 0 0 0 0 0 0 0 0 0 0 0 0 -0 -0 -0 -0 -0 0 0 0 0 0 0 0 0 0 0 0 0
0 0 0 0 0 0 0 0 0 0 0 0 0 0 0 0 0 0 0 0 0 0 -0 -0 -0 0 0 0 0 0 0 0 0 0 0 0 0 0
0 0 0 0 0 0 0 0 0 0 0 0 0 0 0 0 0 0 0 0 0 -0 -0 -0 -0 0 0 0 0 0 0 0 0 0 0 -0 -0 -0
Wind_Speed_500mb
63 69 84 90 91 81 58 76 73 61 93 99 56 47 40 34 36 37 42 41 37 32 29 27 41 51 58 64 56 63 62 60 55 58 55 55 51 50
71 77 79 77 81 79 55 64 70 85 69 75 60 52 38 37 33 32 36 35 33 24 29 39 46 51 52 55 54 54 62 64 61 64 63 53 53 53
69 77 81 76 78 66 65 53 56 47 60 53 48 43 38 38 35 35 34 31 30 26 26 34 39 46 44 45 45 43 51 53 56 55 54 50 52 55
65 73 75 77 78 65 62 47 42 38 39 51 45 44 39 32 35 39 34 33 35 30 31 40 44 42 40 43 42 46 49 51 55 56 53 49 49 47
58 70 77 77 72 72 64 65 47 48 51 50 48 44 34 26 26 22 32 35 34 35 41 37 37 29 33 38 42 42 42 44 47 44 42 47 42 41
49 59 62 75 81 66 70 75 44 45 42 45 43 37 28 19 20 22 29 37 36 30 33 34 35 33 29 33 40 38 37 31 28 27 34 36 34 36
49 51 57 64 66 63 67 71 50 46 44 39 37 34 32 32 30 28 26 31 36 39 43 41 36 34 29 35 40 38 31 27 29 31 31 30 34 34
47 47 63 68 73 72 74 52 51 49 43 38 35 32 32 28 28 26 27 30 30 26 26 31 35 34 30 37 40 44 31 36 35 33 30 30 35 32
50 60 65 71 58 59 53 51 49 42 28 25 32 31 27 18 13 12 14 20 24 27 33 38 22 26 27 35 38 35 28 39 37 34 29 28 26 24
69 68 62 66 52 54 45 44 43 38 31 27 20 18 18 11 5 4 8 13 22 11 15 17 11 17 29 39 23 23 29 35 31 30 28 20 18 18
64 50 52 51 55 53 46 52 45 37 32 28 25 25 18 10 2 7 13 20 26 25 13 8 14 30 32 22 13 13 22 28 30 26 22 17 15 15
55 45 52 52 49 46 40 45 44 44 43 41 33 27 20 13 9 11 16 21 25 22 17 26 28 28 26 14 5 17 21 30 33 29 24 17 13 14
62 56 51 49 47 46 45 43 44 44 43 38 27 22 25 22 15 18 23 26 31 32 29 29 31 26 25 33 29 15 17 22 25 24 22 19 16 14
45 63 47 49 54 51 50 46 42 42 41 39 32 28 24 22 25 29 33 33 32 36 32 34 31 28 33 33 31 25 17 22 23 24 24 23 20 17
48 53 33 59 57 54 57 53 51 49 52 46 41 36 30 22 29 36 37 32 31 36 36 32 33 42 38 36 40 26 35 24 24 31 31 27 19 13
49 61 69 64 55 64 58 43 51 54 56 60 57 44 36 36 33 35 37 28 34 38 31 32 36 33 39 46 44 33 51 31 34 32 32 28 22 21
42 44 65 72 65 57 54 52 50 60 68 64 64 55 48 44 38 36 34 32 40 43 36 40 43 46 39 41 38 31 56 38 39 33 34 33 27 26
63 49 52 59 65 64 63 61 62 58 65 67 62 57 52 47 42 39 37 37 43 48 41 41 34 16 10 23 27 54 44 48 46 35 36 29 36 36
50 60 47 56 57 60 57 53 50 52 53 49 51 51 46 44 43 41 38 40 44 42 35 36 26 30 23 26 42 59 51 51 54 49 37 36 36 37
26 49 54 50 61 59 61 57 57 59 57 50 50 45 41 41 38 36 36 36 38 32 27 17 13 25 27 38 47 55 55 50 49 50 44 46 41 36
42 28 53 50 51 56 55 56 56 55 54 51 48 40 37 33 29 34 32 31 27 27 26 25 29 31 31 42 56 55 54 56 45 35 44 41 42 38
54 39 43 52 45 44 44 41 47 47 47 41 33 31 29 29 29 32 28 23 19 30 41 36 33 21 52 64 57 56 55 48 43 42 37 27 32 29
65 51 32 53 49 44 42 37 47 44 47 45 40 34 33 38 37 32 26 20 28 39 33 37 40 49 58 58 61 61 58 61 51 40 32 22 20 31
Wind_Direction_500mb
258 259 255 262 260 268 258 251 259 252 263 288 235 248 243 260 272 247 291 259 244 253 267 267 266 274 264 280 273 267 262 258 261 268 270 260 255 258
256 256 257 258 259 258 250 250 254 254 245 236 236 239 247 258 268 288 287 241 247 257 285 288 283 276 269 271 273 269 262 260 261 267 265 256 249 253
257 257 258 259 258 250 250 246 242 232 237 256 224 234 247 259 270 277 270 249 256 276 277 282 279 280 268 266 267 271 265 260 256 263 265 248 246 246
253 250 252 255 251 244 247 213 201 204 210 233 236 238 247 251 267 255 238 257 259 258 265 269 281 282 274 274 274 275 269 263 261 259 258 243 246 246
257 256 254 254 251 249 238 212 215 223 220 224 234 246 244 245 247 246 254 258 260 261 260 261 281 277 281 281 280 280 281 268 261 252 247 241 237 239
269 256 255 253 254 245 229 230 231 235 233 234 234 229 214 216 233 244 260 265 270 267 269 274 279 278 277 287 291 287 280 269 241 224 220 230 231 245
271 264 259 256 246 242 235 224 238 233 231 218 204 199 205 217 224 236 249 267 273 277 272 271 269 267 271 276 295 295 276 233 214 215 228 242 235 247
267 266 268 259 251 241 235 235 239 227 221 219 215 201 200 218 239 253 263 270 280 280 277 262 255 268 278 286 285 282 265 217 219 217 241 247 241 252
275 264 262 253 245 241 226 220 217 219 224 223 211 214 226 218 213 237 263 276 290 294 286 283 262 274 288 304 300 270 250 221 221 229 245 237 239 245
261 262 258 232 233 223 205 201 203 205 211 208 190 184 157 147 140 20 343 324 335 319 291 308 310 291 302 316 291 273 236 215 220 221 226 229 237 240
263 231 218 217 206 202 201 196 205 210 192 176 164 164 163 169 235 331 352 334 332 349 342 338 323 323 329 330 251 245 258 224 202 210 214 223 230 233
218 231 237 202 205 203 203 198 195 196 186 179 181 189 195 210 249 310 311 307 315 322 336 326 319 334 334 311 270 257 238 217 234 216 212 219 217 208
229 229 194 199 205 194 194 196 195 195 200 200 197 210 225 236 267 299 299 290 289 297 319 314 312 313 314 296 302 250 249 227 207 194 200 196 187 180
229 213 200 209 202 203 205 204 207 212 218 225 223 237 254 275 289 294 289 282 284 279 304 312 296 303 304 291 284 270 220 201 201 194 184 178 163 169
227 217 194 196 207 211 215 221 214 213 228 232 244 252 261 275 276 279 275 287 290 293 302 287 293 300 284 261 267 263 178 165 171 175 173 168 168 173
221 223 224 222 228 225 225 226 228 231 229 235 246 253 259 258 268 276 275 282 292 302 294 285 304 288 284 255 256 259 177 163 167 172 170 159 152 154
233 227 215 215 218 222 220 217 225 232 235 235 240 245 252 255 264 270 271 272 279 299 297 302 304 302 273 243 243 244 177 164 166 167 162 152 150 160
232 228 225 221 218 218 219 217 222 228 232 236 236 242 246 252 261 267 268 269 276 293 300 309 312 244 213 197 211 179 161 158 163 169 165 151 148 139
227 226 225 221 217 219 214 219 219 225 232 235 239 241 243 247 253 265 263 267 275 294 302 304 282 236 222 199 183 173 166 163 163 155 157 162 158 139
212 218 220 221 218 222 222 227 229 231 236 238 241 243 241 245 251 258 266 270 279 299 306 297 315 276 261 198 168 162 173 163 166 162 159 151 147 140
219 208 214 217 218 221 222 226 228 229 233 237 240 233 231 236 247 265 264 260 285 308 307 298 274 276 248 182 152 157 167 169 163 167 159 157 148 140
211 212 199 207 207 212 208 211 216 215 223 222 217 218 229 238 254 260 240 258 281 299 304 301 290 248 201 171 160 160 162 163 156 151 152 171 163 157
216 208 197 195 202 206 205 205 211 216 223 231 230 230 247 255 262 233 231 239 287 298 287 285 285 188 182 168 163 157 148 141 140 142 133 146 164 160
Wind_Speed_850mb
63 69 84 90 91 81 58 76 73 61 93 99 56 47 40 34 36 37 42 41 37 32 29 27 41 51 58 64 56 63 62 60 55 58 55 55 51 50
71 77 79 77 81 79 55 64 70 85 69 75 60 52 38 37 33 32 36 35 33 24 29 39 46 51 52 55 54 54 62 64 61 64 63 53 53 53
69 77 81 76 78 66 65 53 56 47 60 53 48 43 38 38 35 35 34 31 30 26 26 34 39 46 44 45 45 43 51 53 56 55 54 50 52 55
65 73 75 77 78 65 62 47 42 38 39 51 45 44 39 32 35 39 34 33 35 30 31 40 44 42 40 43 42 46 49 51 55 56 53 49 49 47
58 70 77 77 72 72 64 65 47 48 51 50 48 44 34 26 26 22 32 35 34 35 41 37 37 29 33 38 42 42 42 44 47 44 42 47 42 41
49 59 62 75 81 66 70 75 44 45 42 45 43 37 28 19 20 22 29 37 36 30 33 34 35 33 29 33 40 38 37 31 28 27 34 36 34 36
49 51 57 64 66 63 67 71 50 46 44 39 37 34 32 32 30 28 26 31 36 39 43 41 36 34 29 35 40 38 31 27 29 31 31 30 34 34
47 47 63 68 73 72 74 52 51 49 43 38 35 32 32 28 28 26 27 30 30 26 26 31 35 34 30 37 40 44 31 36 35 33 30 30 35 32
50 60 65 71 58 59 53 51 49 42 28 25 32 31 27 18 13 12 14 20 24 27 33 38 22 26 27 35 38 35 28 39 37 34 29 28 26 24
69 68 62 66 52 54 45 44 43 38 31 27 20 18 18 11 5 4 8 13 22 11 15 17 11 17 29 39 23 23 29 35 31 30 28 20 18 18
64 50 52 51 55 53 46 52 45 37 32 28 25 25 18 10 2 7 13 20 26 25 13 8 14 30 32 22 13 13 22 28 30 26 22 17 15 15
55 45 52 52 49 46 40 45 44 44 43 41 33 27 20 13 9 11 16 21 25 22 17 26 28 28 26 14 5 17 21 30 33 29 24 17 13 14
62 56 51 49 47 46 45 43 44 44 43 38 27 22 25 22 15 18 23 26 31 32 29 29 31 26 25 33 29 15 17 22 25 24 22 19 16 14
45 63 47 49 54 51 50 46 42 42 41 39 32 28 24 22 25 29 33 33 32 36 32 34 31 28 33 33 31 25 17 22 23 24 24 23 20 17
48 53 33 59 57 54 57 53 51 49 52 46 41 36 30 22 29 36 37 32 31 36 36 32 33 42 38 36 40 26 35 24 24 31 31 27 19 13
49 61 69 64 55 64 58 43 51 54 56 60 57 44 36 36 33 35 37 28 34 38 31 32 36 33 39 46 44 33 51 31 34 32 32 28 22 21
42 44 65 72 65 57 54 52 50 60 68 64 64 55 48 44 38 36 34 32 40 43 36 40 43 46 39 41 38 31 56 38 39 33 34 33 27 26
63 49 52 59 65 64 63 61 62 58 65 67 62 57 52 47 42 39 37 37 43 48 41 41 34 16 10 23 27 54 44 48 46 35 36 29 36 36
50 60 47 56 57 60 57 53 50 52 53 49 51 51 46 44 43 41 38 40 44 42 35 36 26 30 23 26 42 59 51 51 54 49 37 36 36 37
26 49 54 50 61 59 61 57 57 59 57 50 50 45 41 41 38 36 36 36 38 32 27 17 13 25 27 38 47 55 55 50 49 50 44 46 41 36
42 28 53 50 51 56 55 56 56 55 54 51 48 40 37 33 29 34 32 31 27 27 26 25 29 31 31 42 56 55 54 56 45 35 44 41 42 38
54 39 43 52 45 44 44 41 47 47 47 41 33 31 29 29 29 32 28 23 19 30 41 36 33 21 52 64 57 56 55 48 43 42 37 27 32 29
65 51 32 53 49 44 42 37 47 44 47 45 40 34 33 38 37 32 26 20 28 39 33 37 40 49 58 58 61 61 58 61 51 40 32 22 20 31
Wind_Direction_850mb
258 259 255 262 260 268 258 251 259 252 263 288 235 248 243 260 272 247 291 259 244 253 267 267 266 274 264 280 273 267 262 258 261 268 270 260 255 258
256 256 257 258 259 258 250 250 254 254 245 236 236 239 247 258 268 288 287 241 247 257 285 288 283 276 269 271 273 269 262 260 261 267 265 256 249 253
257 257 258 259 258 250 250 246 242 232 237 256 224 234 247 259 270 277 270 249 256 276 277 282 279 280 268 266 267 271 265 260 256 263 265 248 246 246
253 250 252 255 251 244 247 213 201 204 210 233 236 238 247 251 267 255 238 257 259 258 265 269 281 282 274 274 274 275 269 263 261 259 258 243 246 246
257 256 254 254 251 249 238 212 215 223 220 224 234 246 244 245 247 246 254 258 260 261 260 261 281 277 281 281 280 280 281 268 261 252 247 241 237 239
269 256 255 253 254 245 229 230 231 235 233 234 234 229 214 216 233 244 260 265 270 267 269 274 279 278 277 287 291 287 280 269 241 224 220 230 231 245
271 264 259 256 246 242 235 224 238 233 231 218 204 199 205 217 224 236 249 267 273 277 272 271 269 267 271 276 295 295 276 233 214 215 228 242 235 247
267 266 268 259 251 241 235 235 239 227 221 219 215 201 200 218 239 253 263 270 280 280 277 262 255 268 278 286 285 282 265 217 219 217 241 247 241 252
275 264 262 253 245 241 226 220 217 219 224 223 211 214 226 218 213 237 263 276 290 294 286 283 262 274 288 304 300 270 250 221 221 229 245 237 239 245
261 262 258 232 233 223 205 201 203 205 211 208 190 184 157 147 140 20 343 324 335 319 291 308 310 291 302 316 291 273 236 215 220 221 226 229 237 240
263 231 218 217 206 202 201 196 205 210 192 176 164 164 163 169 235 331 352 334 332 349 342 338 323 323 329 330 251 245 258 224 202 210 214 223 230 233
218 231 237 202 205 203 203 198 195 196 186 179 181 189 195 210 249 310 311 307 315 322 336 326 319 334 334 311 270 257 238 217 234 216 212 219 217 208
229 229 194 199 205 194 194 196 195 195 200 200 197 210 225 236 267 299 299 290 289 297 319 314 312 313 314 296 302 250 249 227 207 194 200 196 187 180
229 213 200 209 202 203 205 204 207 212 218 225 223 237 254 275 289 294 289 282 284 279 304 312 296 303 304 291 284 270 220 201 201 194 184 178 163 169
227 217 194 196 207 211 215 221 214 213 228 232 244 252 261 275 276 279 275 287 290 293 302 287 293 300 284 261 267 263 178 165 171 175 173 168 168 173
221 223 224 222 228 225 225 226 228 231 229 235 246 253 259 258 268 276 275 282 292 302 294 285 304 288 284 255 256 259 177 163 167 172 170 159 152 154
233 227 215 215 218 222 220 217 225 232 235 235 240 245 252 255 264 270 271 272 279 299 297 302 304 302 273 243 243 244 177 164 166 167 162 152 150 160
232 228 225 221 218 218 219 217 222 228 232 236 236 242 246 252 261 267 268 269 276 293 300 309 312 244 213 197 211 179 161 158 163 169 165 151 148 139
227 226 225 221 217 219 214 219 219 225 232 235 239 241 243 247 253 265 263 267 275 294 302 304 282 236 222 199 183 173 166 163 163 155 157 162 158 139
212 218 220 221 218 222 222 227 229 231 236 238 241 243 241 245 251 258 266 270 279 299 306 297 315 276 261 198 168 162 173 163 166 162 159 151 147 140
219 208 214 217 218 221 222 226 228 229 233 237 240 233 231 236 247 265 264 260 285 308 307 298 274 276 248 182 152 157 167 169 163 167 159 157 148 140
211 212 199 207 207 212 208 211 216 215 223 222 217 218 229 238 254 260 240 258 281 299 304 301 290 248 201 171 160 160 162 163 156 151 152 171 163 157
216 208 197 195 202 206 205 205 211 216 223 231 230 230 247 255 262 233 231 239 287 298 287 285 285 188 182 168 163 157 148 141 140 142 133 146 164 160